User: anonymous   Login
Location: Granada
(37.1830°N, 3.6000°W)
Time: 16:09:16
(UTC+01:00)
Language:

Iridium 70 - Orbit

View from above orbital plane
View from above orbital plane
View from above satellite
View from above satellite

Ground track
Ground track

The orbit data is extracted from the following two-line orbital elements,

1 25342U 98032A   16043.54675947  .00000052  00000-0  11337-4 0  9995
2 25342  86.3930  69.3454 0002227  96.4908  14.3846 14.34218844928775
Epoch (UTC): 12 February 2016 13:07:20
Eccentricity: 0.0002227
inclination: 86.3930°
perigee height: 776 km
apogee height: 779 km
right ascension of ascending node: 69.3454°
argument of perigee: 96.4908°
revolutions per day: 14.34218844
mean anomaly at epoch: 14.3846°
orbit number at epoch: 92877

The dashed part of the orbit path shows where the satellite is in the earth's shadow,  

DLR